カタログに戻る

CZ-6A DEB

運用中PO
NORAD 60693·DEBRIS·🇨🇳 China

打ち上げ Aug 6, 2024 から Taiyuan Satellite Launch Center

Loading…

次のパス (今後24時間)

TLE

最新Source: Space-Track

元期: Sep 14, 2026, 10:51 UTC

1 60693U 24140CW  26257.45273045  .00000203  00000-0  10208-3 0  9996
2 60693  89.0084 267.0453 0080949 285.6059  73.6203 14.11194641107963

AllMySatでCZ-6A DEBをリアルタイム追跡

Download on the App Store